Regional Weather Roundup
Issued by NWS

Home | Current Version | Previous Version | Text Only | Print | Product List | Glossary On
Versions: 1 2 3 4 5 6 7 8 9 10 11 12 13 14 15 16 17 18 19 20 21 22 23 24 25 26 27 28 29 30 31 32 33 34 35 36 37 38 39 40 41 42 43 44 45 46 47 48
000
ASUS45 KBOU 251007
RWRCO

WEATHER ROUNDUP FOR COLORADO
NATIONAL WEATHER SERVICE DENVER/BOULDER CO
300 AM MST SUN JAN 25 2015

NOTE: "FAIR" INDICATES FEW OR NO CLOUDS BELOW 12000 FEET WITH NO
SIGNIFICANT WEATHER AND/OR OBSTRUCTIONS TO VISIBILITY.

COZ001>005-013-030-031-251100-
...NORTHWEST COLORADO...

CITY           SKY/WX    TMP DP  RH WIND       PRES   REMARKS
CRAIG            N/A     12   9  87 CALM      30.36R
HAYDEN         CLOUDY    25  18  74 SE3       30.34S
MEEKER         PTCLDY    11   7  84 CALM      30.37S
MOUNT WERNER   NOT AVBL
STEAMBOAT SPGS CLOUDY    29  19  65 E5        30.34R WCI  24
WALDEN         CLEAR     23  19  86 SE6       30.26R WCI  16
$$

COZ006>008-011-251100-
...WEST CENTRAL VALLEYS...

CITY           SKY/WX    TMP DP  RH WIND       PRES   REMARKS
GRAND JUNCTION MOCLDY    24  17  74 SE9       30.38R WCI  14
MONTROSE       MOCLDY    21  14  74 S9        30.41S WCI  11
EAGLE          PTCLDY    23  18  80 N3        30.38S
RIFLE          PTCLDY    22  15  75 SW3       30.40S
DELTA          MOCLDY    22  15  75 E3        30.42R
NUCLA          MOCLDY    23  16  74 E5        30.38F WCI  17
$$

COZ017>023-064>068-251100-
...SOUTHWEST COLORADO...

CITY           SKY/WX    TMP DP  RH WIND       PRES   REMARKS
DURANGO        PTCLDY    19  14  81 N6        30.26S WCI  11
CORTEZ         CLEAR     19  15  84 E3        30.28R
PAGOSA SPRINGS PTCLDY    12   9  87 W3        30.25F
TELLURIDE      PTCLDY    26  14  60 SE3       30.39R
WOLF CREEK PAS NOT AVBL
$$

COZ009-010-012-014-032>034-037-058>063-251100-
...CENTRAL COLORADO...

CITY           SKY/WX    TMP DP  RH WIND       PRES   REMARKS
ASPEN          MOCLDY    25  18  74 S5        30.36R WCI  19
BUENA VISTA    PTCLDY    35  19  52 NW10G20   30.24S WCI  28
COPPER MTN     CLOUDY    23  18  80 W37G45    30.29S HAZE    WCI   4
BERTHOUD PASS  HVY SNOW  14  10  85 MISG      30.21S VSB 1/4
COTTONWOOD PAS PTCLDY    34  18  51 W16G26    30.26R WCI  23
GUNNISON       PTCLDY    -2  -2 100 CALM      30.41R
KREMMLING      CLOUDY    30  19  64 CALM      30.32R
LEADVILLE      CLOUDY    26  18  71 N8        30.32S WCI  18
MONARCH PASS   MOCLDY    16  14  93 W40G46    30.39S WCI  -7
SALIDA         PTCLDY    38  19  48 W13G18    30.32R
SUNLIGHT       CLOUDY    27  23  86 SW5         N/A  WCI  21
WILKERSON PASS PTCLDY    25  12  58 MISG      30.20F
$$

COZ069>075-251100-
...SAN LUIS VALLEY/SANGRE DE CRISTO MOUNTAINS...

CITY           SKY/WX    TMP DP  RH WIND       PRES   REMARKS
ALAMOSA        MOCLDY     5   1  83 W5        30.28S WCI  -4
LA VETA PASS   NOT AVBL
SAGUACHE       PTCLDY    28  18  64 N8        30.29R WCI  20
$$

COZ035-036-038>040-251100-
...NORTHERN COLORADO FRONT RANGE...

CITY           SKY/WX    TMP DP  RH WIND       PRES   REMARKS
DENVER INTL AP PTCLDY    28  25  88 S13       30.13S WCI  17
DMNS CITY PARK   N/A     44  24  45 W12G25    30.12F
AURORA         PTCLDY    31  25  80 S5        30.13F WCI  26
FRONT RANGE AP NOT AVBL
ERIE MUNI ARPT CLEAR     33  27  79 S3        30.12S
BOULDER MUN AP CLEAR     32  28  86 CALM      30.11S
CENTENNIAL     PTCLDY    28  24  85 S8        30.13S WCI  20
BROOMFIELD     CLEAR     45  23  42 W18       30.12S
FORT COLLINS   CLEAR     28  25  86 S6        30.14R WCI  22
LONGMONT       CLEAR     28  24  87 CALM      30.14S
$$

COZ041-046-047-076>085-087-088-251100-
...PIKES PEAK/PALMER DIVIDE AND SOUTHERN FOOTHILLS...

CITY           SKY/WX    TMP DP  RH WIND       PRES   REMARKS
COLO. SPRINGS  CLEAR     36  23  59 CALM      30.14R
A. F. ACADEMY  CLEAR     24  20  83 N9        30.12F WCI  15
ELLICOTT       CLEAR    N/A N/A N/A N6        30.12S
FALCON         CLEAR     32  23  69 N14       30.14S WCI  22
FORT CARSON    CLEAR     29  21  72 S6        30.12F WCI  23
LIMON          MOCLDY    33  25  72 N15       30.12F WCI  23
MONUMENT HILL  CLEAR     23  21  93 SW6       30.13S WCI  16
TRINIDAD       CLEAR     31  25  78 S8        30.18F WCI  23
$$

COZ042>045-048>051-090-091-251100-
...NORTHEAST COLORADO...

CITY           SKY/WX    TMP DP  RH WIND       PRES   REMARKS
GREELEY ARPT   CLEAR     28  19  69 CALM      30.12S
AKRON          CLEAR     34  25  69 N21       30.09S WCI  22
BURLINGTON     CLEAR     36  26  67 NW20      30.08S
WRAY           MOCLDY    40  26  56 NW22G33   30.07R
STERLING       CLEAR     37  30  75 NW17      30.10S
HOLYOKE        CLEAR     41  27  56 NW22G30   30.06R
FORT MORGAN    PTCLDY    35  26  68 N14G20    30.13S WCI  26
$$

COZ086-089-092>099-251100-
...SOUTHEAST COLORADO...

CITY           SKY/WX    TMP DP  RH WIND       PRES   REMARKS
PUEBLO         CLEAR     35  26  69 S7        30.16F WCI  29
LA JUNTA       CLEAR     36  27  69 W12       30.16S
LAMAR          CLEAR     41  26  55 N21G31    30.08R
SPRINGFIELD      N/A     35  27  72 NW18      30.10F WCI  24
$$


USA.gov is the U.S. government's official web portal to all federal, state and local government web resources and services.